Tracking 22881 objects as of 19-Apr-2021
HD Live streaming from Space Station
objects crossing your sky now

STARLINK-48

Track STARLINK-48 now!
10-day predictions
STARLINK-48 is classified as:


NORAD ID: 44289
Int'l Code: 2019-029BG
Perigee: 171.8 km
Apogee: 182.9 km
Inclination: 53.0 °
Period: 87.9 minutes
Semi major axis: 6548 km
RCS: Unknown
Launch date: May 24, 2019
Source: United States (US)
Launch site: AIR FORCE EASTERN TEST RANGE (AFETR)
aabbcc
Your satellite tracking list
Your tracking list is empty




NASA's NSSDC Master Catalog

Two Line Element Set (TLE):
1 44289U 19029BG  21108.57519667  .35374924  12432-4  30987-2 0  9998
2 44289  52.9905 201.5628 0008484 323.9147  36.3798 16.38335892107222
Source of the keplerian elements: AFSPC